When you browse on this site, cookies collect data to enhance your experience and personalize the content and advertising you see.
Visit our Privacy Policy to learn more. By continuing to use the site, you agree to this use of cookies and data.
  • In Sweden
  • List of Countries
  • For 7 days
  • Water Temperature
  • Satellite Maps
  • Weather Map
  • Weather Widgets
  • user-avatar
    Login

    Hourly Weather Niedyszyna

    Today, 23 February, Saturday

    Time Temperature Precipitation Wind Pressure Humidity
    00:00 -7°C° 0 mm 4 mps 761 mmHg 42%
    01:00 -7°C° 0 mm 4 mps 762 mmHg 38%
    02:00 -7°C° 0 mm 4 mps 761 mmHg 38%
    03:00 -6°C° 0 mm 3 mps 761 mmHg 39%
    04:00 -6°C° 0 mm 3 mps 761 mmHg 40%
    05:00 -5°C° 0 mm 2 mps 761 mmHg 41%
    06:00 -5°C° 0 mm 2 mps 762 mmHg 42%
    07:00 -4°C° 0 mm 1 mps 762 mmHg 43%
    08:00 -3°C° 0 mm 1 mps 762 mmHg 41%
    09:00 -5°C° 0 mm 2 mps 762 mmHg 39%
    10:00 -4°C° 0 mm 2 mps 762 mmHg 37%
    11:00 -1°C° 0 mm 1 mps 762 mmHg 34%
    12:00 -1°C° 0 mm 1 mps 762 mmHg 32%
    13:00 -1°C° 0 mm 0 mps 762 mmHg 31%
    14:00 -1°C° 0 mm 0 mps 762 mmHg 31%
    15:00 -1°C° 0 mm 0 mps 761 mmHg 30%
    16:00 0°C° 0 mm 1 mps 761 mmHg 30%
    17:00 -1°C° 0 mm 1 mps 760 mmHg 33%
    18:00 -1°C° 0 mm 1 mps 760 mmHg 35%
    19:00 -3°C° 0 mm 0 mps 760 mmHg 38%
    20:00 -2°C° 0 mm 1 mps 760 mmHg 38%
    21:00 -2°C° 0 mm 1 mps 760 mmHg 38%
    22:00 -2°C° 0 mm 1 mps 760 mmHg 38%
    23:00 -3°C° 0 mm 2 mps 759 mmHg 36%

    Tomorrow, 24 February, Sunday

    Time Temperature Precipitation Wind Pressure Humidity
    00:00 -3°C° 0 mm 2 mps 759 mmHg 35%
    01:00 -4°C° 0 mm 3 mps 759 mmHg 34%
    02:00 -4°C° 0 mm 3 mps 758 mmHg 34%
    03:00 -3°C° 0 mm 2 mps 758 mmHg 35%
    04:00 -3°C° 0 mm 2 mps 758 mmHg 35%
    05:00 -3°C° 0 mm 2 mps 758 mmHg 35%
    06:00 -4°C° 0 mm 3 mps 757 mmHg 34%
    07:00 -4°C° 0 mm 3 mps 757 mmHg 34%
    08:00 -2°C° 0 mm 3 mps 757 mmHg 34%
    09:00 -2°C° 0 mm 3 mps 757 mmHg 33%
    10:00 -1°C° 0 mm 3 mps 757 mmHg 32%
    11:00 0°C° 0 mm 3 mps 757 mmHg 34%
    12:00 +1°C° 0 mm 3 mps 756 mmHg 35%
    13:00 +1°C° 0 mm 3 mps 756 mmHg 36%
    14:00 +2°C° 0 mm 3 mps 756 mmHg 40%
    15:00 +2°C° 0 mm 3 mps 756 mmHg 43%
    16:00 +2°C° 0 mm 3 mps 756 mmHg 46%
    17:00 +1°C° 0 mm 3 mps 756 mmHg 50%
    18:00 0°C° 0 mm 3 mps 756 mmHg 53%
    19:00 -1°C° 0 mm 3 mps 756 mmHg 56%
    20:00 -1°C° 0 mm 3 mps 756 mmHg 58%
    21:00 -1°C° 0 mm 3 mps 756 mmHg 59%
    22:00 -1°C° 0 mm 3 mps 756 mmHg 60%
    23:00 -1°C° 0 mm 3 mps 756 mmHg 62%

    Day after tomorrow, 25 February, Monday

    Time Temperature Precipitation Wind Pressure Humidity
    00:00 -1°C° 0 mm 3 mps 756 mmHg 63%
    01:00 -1°C° 0 mm 3 mps 756 mmHg 65%
    02:00 -1°C° 0 mm 3 mps 755 mmHg 66%
    03:00 -1°C° 0 mm 3 mps 755 mmHg 67%
    04:00 -1°C° 0 mm 3 mps 755 mmHg 67%
    05:00 -2°C° 0 mm 4 mps 755 mmHg 69%
    06:00 -2°C° 0 mm 4 mps 755 mmHg 71%
    07:00 -2°C° 0 mm 4 mps 755 mmHg 73%
    08:00 -1°C° 0 mm 4 mps 755 mmHg 71%
    09:00 0°C° 0 mm 4 mps 755 mmHg 70%
    10:00 +1°C° 0 mm 4 mps 755 mmHg 68%
    11:00 +3°C° 0 mm 4 mps 755 mmHg 69%
    12:00 +4°C° 0 mm 4 mps 755 mmHg 70%
    13:00 +5°C° 0 mm 4 mps 754 mmHg 72%
    14:00 +5°C° 0 mm 4 mps 754 mmHg 74%
    15:00 +5°C° 0 mm 4 mps 754 mmHg 76%
    16:00 +5°C° 0 mm 4 mps 753 mmHg 79%
    17:00 +4°C° 0 mm 4 mps 754 mmHg 83%
    18:00 +3°C° 0 mm 3 mps 754 mmHg 87%
    19:00 +2°C° 0 mm 3 mps 754 mmHg 90%
    20:00 +1°C° 0 mm 3 mps 753 mmHg 91%
    21:00 +1°C° 0 mm 3 mps 753 mmHg 92%
    22:00 +1°C° 0 mm 3 mps 753 mmHg 93%
    23:00 0°C° 0 mm 3 mps 753 mmHg 94%

    26 February, Tuesday

    Time Temperature Precipitation Wind Pressure Humidity
    00:00 0°C° 0 mm 3 mps 753 mmHg 94%
    01:00 0°C° 0 mm 3 mps 753 mmHg 95%
    02:00 0°C° 0 mm 3 mps 752 mmHg 95%
    03:00 -1°C° 0 mm 4 mps 752 mmHg 96%
    04:00 -1°C° 0 mm 4 mps 751 mmHg 97%
    05:00 -1°C° 0 mm 4 mps 751 mmHg 97%
    06:00 0°C° 0 mm 5 mps 751 mmHg 97%
    07:00 0°C° 0 mm 5 mps 750 mmHg 97%
    08:00 +1°C° 0.1 mm 5 mps 750 mmHg 96%
    09:00 +1°C° 0.1 mm 5 mps 750 mmHg 95%
    10:00 +1°C° 0.1 mm 5 mps 750 mmHg 94%
    11:00 +2°C° 0 mm 5 mps 750 mmHg 92%
    12:00 +2°C° 0 mm 6 mps 750 mmHg 90%
    13:00 +3°C° 0 mm 6 mps 749 mmHg 88%
    14:00 +3°C° 0 mm 6 mps 749 mmHg 85%
    15:00 +4°C° 0 mm 6 mps 750 mmHg 81%
    16:00 +5°C° 0 mm 5 mps 750 mmHg 78%
    17:00 +3°C° 0 mm 5 mps 750 mmHg 81%
    18:00 +4°C° 0 mm 4 mps 750 mmHg 84%
    19:00 +3°C° 0 mm 4 mps 751 mmHg 87%
    20:00 +1°C° 0 mm 4 mps 751 mmHg 88%
    21:00 +2°C° 0 mm 3 mps 751 mmHg 88%
    22:00 +1°C° 0 mm 3 mps 751 mmHg 89%
    23:00 0°C° 0 mm 3 mps 751 mmHg 90%

    27 February, Wednesday

    Time Temperature Precipitation Wind Pressure Humidity
    00:00 0°C° 0 mm 3 mps 752 mmHg 90%
    01:00 -1°C° 0 mm 2 mps 752 mmHg 90%
    02:00 -1°C° 0 mm 2 mps 752 mmHg 90%
    03:00 -1°C° 0 mm 2 mps 751 mmHg 90%
    04:00 -1°C° 0 mm 2 mps 751 mmHg 90%
    05:00 -1°C° 0 mm 2 mps 751 mmHg 89%
    06:00 -1°C° 0 mm 2 mps 751 mmHg 88%
    07:00 -1°C° 0 mm 2 mps 751 mmHg 87%
    08:00 +1°C° 0 mm 3 mps 751 mmHg 82%
    09:00 +3°C° 0 mm 3 mps 750 mmHg 77%
    10:00 +4°C° 0 mm 4 mps 750 mmHg 72%
    11:00 +5°C° 0 mm 4 mps 749 mmHg 70%
    12:00 +6°C° 0 mm 5 mps 749 mmHg 68%
    13:00 +7°C° 0 mm 5 mps 748 mmHg 66%
    14:00 +8°C° 0 mm 5 mps 748 mmHg 66%
    15:00 +8°C° 0 mm 5 mps 747 mmHg 65%
    16:00 +8°C° 0 mm 5 mps 746 mmHg 65%
    17:00 +7°C° 0 mm 5 mps 746 mmHg 69%
    18:00 +6°C° 0 mm 4 mps 746 mmHg 73%
    19:00 +5°C° 0 mm 4 mps 746 mmHg 77%
    20:00 +4°C° 0 mm 4 mps 746 mmHg 80%
    21:00 +4°C° 0 mm 4 mps 745 mmHg 82%
    22:00 +3°C° 0 mm 3 mps 745 mmHg 84%
    23:00 +3°C° 0 mm 4 mps 744 mmHg 85%

    28 February, Thursday

    Time Temperature Precipitation Wind Pressure Humidity
    00:00 +3°C° 0 mm 4 mps 744 mmHg 85%
    01:00 +3°C° 0 mm 4 mps 743 mmHg 86%
    02:00 +3°C° 0 mm 4 mps 742 mmHg 84%
    03:00 +2°C° 0 mm 5 mps 741 mmHg 82%
    04:00 +2°C° 0 mm 5 mps 741 mmHg 80%
    05:00 +2°C° 0 mm 5 mps 740 mmHg 77%
    06:00 +2°C° 0 mm 6 mps 739 mmHg 74%
    07:00 +2°C° 0 mm 6 mps 739 mmHg 71%
    08:00 +3°C° 0 mm 7 mps 738 mmHg 71%
    09:00 +4°C° 0 mm 8 mps 738 mmHg 72%
    10:00 +5°C° 0 mm 9 mps 738 mmHg 72%
    11:00 +5°C° 0 mm 9 mps 738 mmHg 73%
    12:00 +5°C° 0 mm 9 mps 738 mmHg 74%
    13:00 +5°C° 0 mm 10 mps 738 mmHg 75%
    14:00 +5°C° 0.1 mm 10 mps 738 mmHg 75%
    15:00 +5°C° 0.1 mm 9 mps 738 mmHg 76%
    16:00 +3°C° 0.1 mm 9 mps 737 mmHg 76%
    17:00 +3°C° 0 mm 9 mps 738 mmHg 73%
    18:00 +5°C° 0 mm 8 mps 738 mmHg 70%
    19:00 +5°C° 0 mm 8 mps 738 mmHg 67%
    20:00 +4°C° 0 mm 8 mps 738 mmHg 68%
    21:00 +2°C° 0 mm 8 mps 738 mmHg 70%
    22:00 +2°C° 0 mm 7 mps 738 mmHg 72%
    23:00 +2°C° 0 mm 7 mps 739 mmHg 75%
    Show more